Mount Pleasant, IA

6:27 AM CDT on July 25, 2017 (GMT -0500)
Mount Pleasant Municipal

Weather History for KMPZ - September, 2013

Change the Weather History Date:

Sunday, September 22, 2013

  Actual Average Record
Temperature  
Mean Temperature 60 °F -  
Max Temperature 75 °F 72 °F 92 °F (2016)
Min Temperature 45 °F 49 °F 32 °F (1953)
Degree Days  
Heating Degree Days 5    
Growing Degree Days 10 (Base 50)    
Moisture  
Dew Point 46 °F    
Average Humidity 66    
Maximum Humidity 94    
Minimum Humidity 29    
Precipitation  
Precipitation 0.00 in - - ()
Sea Level Pressure  
Sea Level Pressure 29.98 in    
Wind  
Wind Speed 3 mph (ESE)    
Max Wind Speed 10 mph    
Max Gust Speed -    
Visibility 9 miles    
Events      
Averages and records for this station are not official NWS values.
T = Trace of Precipitation, MM = Missing Value Source: NWS Daily Summary

Daily Weather History Graph

Daily Weather History Graph

Search for Another Location

Airport or City:

Trip Planner

Search our weather history database for the weather conditions in past years. The results will help you decide how hot, cold, wet, or windy it might be!

Date:

Astronomy

Sep. 22, 2013 Rise Set
Actual Time 6:53 AM CDT 7:02 PM CDT
Civil Twilight 6:26 AM CDT 7:30 PM CDT
Nautical Twilight 5:54 AM CDT 8:02 PM CDT
Astronomical Twilight 5:21 AM CDT 8:34 PM CDT
Moon 8:51 PM CDT (9/22) 10:16 AM CDT (9/22)
Length of Visible Light 13h 03m
Length of Day
12h 08m
Waning Gibbous, 88% of the Moon is Illuminated
Sep 22
Waning Gibbous
Sep 26
Last Quarter
Oct 4
New
Oct 11
First Quarter
Oct 18
Full

Hourly Weather History & Observations

Time (CDT) Temp. Windchill Dew Point Humidity Pressure Visibility Wind Dir Wind Speed Gust Speed Precip Events Conditions
12:15 AM 51.8 °F - 46.6 °F 82% 29.96 in 7.0 mi Calm Calm - N/A   Clear
12:35 AM 48.7 °F - 44.8 °F 86% 29.96 in 7.0 mi Calm Calm - N/A   Clear
12:55 AM 49.1 °F - 45.5 °F 87% 29.96 in 10.0 mi Calm Calm - N/A   Clear
1:15 AM 50.5 °F - 46.8 °F 87% 29.97 in 10.0 mi Calm Calm - N/A   Clear
1:35 AM 46.9 °F - 43.7 °F 88% 29.97 in 10.0 mi Calm Calm - N/A   Clear
1:55 AM 48.7 °F - 46.6 °F 92% 29.97 in 10.0 mi Calm Calm - N/A   Clear
2:15 AM 47.8 °F - 45.3 °F 91% 29.98 in 10.0 mi Calm Calm - N/A   Clear
2:35 AM 48.2 °F - 46.4 °F 93% 29.97 in 10.0 mi Calm Calm - N/A   Clear
2:55 AM 48.4 °F - 46.8 °F 94% 29.97 in 10.0 mi Calm Calm - N/A   Clear
3:15 AM 48.2 °F - 45.5 °F 90% 29.97 in 10.0 mi Calm Calm - N/A   Clear
3:35 AM 47.1 °F - 44.2 °F 90% 29.97 in 10.0 mi Calm Calm - N/A   Clear
3:55 AM 46.6 °F - 44.1 °F 91% 29.97 in 10.0 mi ENE 3.5 mph - N/A   Clear
4:15 AM 45.9 °F 42.9 °F 43.7 °F 92% 29.97 in 7.0 mi East 5.8 mph - N/A   Clear
4:35 AM 46.6 °F - 44.6 °F 93% 29.98 in 1.8 mi ENE 3.5 mph - N/A   Mist
4:55 AM 46.6 °F - 43.9 °F 90% 29.98 in 2.0 mi Calm Calm - N/A   Clear
5:15 AM 46.2 °F - 43.3 °F 90% 29.98 in 10.0 mi Calm Calm - N/A   Clear
5:35 AM 46.8 °F - 44.4 °F 92% 29.99 in 10.0 mi Calm Calm - N/A   Clear
5:55 AM 46.6 °F - 43.3 °F 88% 29.99 in 10.0 mi Calm Calm - N/A   Clear
6:15 AM 45.9 °F - 43.7 °F 92% 29.99 in 10.0 mi Calm Calm - N/A   Clear
6:35 AM 47.3 °F - 44.8 °F 91% 30.00 in 10.0 mi East 5.8 mph - N/A   Clear
6:55 AM 46.9 °F - 44.8 °F 92% 30.00 in 5.0 mi ESE 4.6 mph - N/A   Clear
7:15 AM 46.2 °F 44.1 °F 44.1 °F 92% 30.00 in 3.0 mi East 4.6 mph - N/A   Clear
7:35 AM 47.5 °F - 45.5 °F 93% 30.01 in 4.0 mi East 3.5 mph - N/A   Clear
7:55 AM 50.2 °F - 47.7 °F 91% 30.02 in 5.0 mi East 3.5 mph - N/A   Clear
8:15 AM 53.2 °F - 49.8 °F 88% 30.02 in 10.0 mi ESE 3.5 mph - N/A   Clear
8:35 AM 55.4 °F - 50.7 °F 84% 30.03 in 10.0 mi SE 3.5 mph - N/A   Clear
8:55 AM 57.0 °F - 50.4 °F 78% 30.03 in 10.0 mi ESE 3.5 mph - N/A   Clear
9:15 AM 59.0 °F - 50.4 °F 73% 30.04 in 10.0 mi SE 4.6 mph - N/A   Clear
9:35 AM 60.8 °F - 49.8 °F 67% 30.04 in 10.0 mi SSE 3.5 mph - N/A   Clear
9:55 AM 62.8 °F - 48.9 °F 61% 30.04 in 10.0 mi SSE 5.8 mph - N/A   Clear
10:15 AM 64.8 °F - 49.6 °F 58% 30.04 in 10.0 mi SSE 5.8 mph - N/A   Clear
10:35 AM 66.7 °F - 49.1 °F 53% 30.04 in 10.0 mi SE 5.8 mph - N/A   Clear
10:55 AM 67.5 °F - 48.6 °F 51% 30.04 in 10.0 mi SSE 6.9 mph - N/A   Clear
11:15 AM 68.9 °F - 48.0 °F 47% 30.03 in 10.0 mi ESE 5.8 mph - N/A   Clear
11:35 AM 69.8 °F - 47.8 °F 46% 30.02 in 10.0 mi ESE 6.9 mph - N/A   Clear
11:55 AM 69.8 °F - 45.9 °F 42% 30.02 in 10.0 mi SE 3.5 mph - N/A   Clear
12:15 PM 70.5 °F - 46.0 °F 42% 30.01 in 10.0 mi SSE 5.8 mph - N/A   Clear
12:35 PM 71.6 °F - 46.6 °F 41% 30.01 in 10.0 mi SSE 6.9 mph - N/A   Clear
12:55 PM 71.2 °F - 45.7 °F 40% 30.01 in 10.0 mi SSE 3.5 mph - N/A   Clear
1:15 PM 72.0 °F - 45.9 °F 39% 30.00 in 10.0 mi ESE 5.8 mph - N/A   Clear
1:35 PM 73.8 °F - 45.9 °F 37% 30.00 in 10.0 mi SSE 4.6 mph - N/A   Clear
1:55 PM 74.1 °F - 45.9 °F 36% 29.99 in 10.0 mi East 4.6 mph - N/A   Clear
2:15 PM 74.8 °F - 46.0 °F 36% 29.98 in 10.0 mi East 3.5 mph - N/A   Clear
2:35 PM 74.8 °F - 45.5 °F 35% 29.97 in 10.0 mi ESE 10.4 mph - N/A   Clear
2:55 PM 74.5 °F - 45.5 °F 36% 29.97 in 10.0 mi East 5.8 mph - N/A   Clear
3:15 PM 75.6 °F - 44.6 °F 33% 29.96 in 10.0 mi Calm Calm - N/A   Clear
3:35 PM 75.6 °F - 42.6 °F 31% 29.95 in 10.0 mi East 8.1 mph - N/A   Clear
3:55 PM 75.9 °F - 41.2 °F 29% 29.95 in 10.0 mi East 6.9 mph - N/A   Clear
4:15 PM 75.6 °F - 41.2 °F 29% 29.95 in 10.0 mi ESE 5.8 mph - N/A   Clear
4:35 PM 75.4 °F - 41.7 °F 30% 29.94 in 10.0 mi SE 6.9 mph - N/A   Clear
4:55 PM 75.2 °F - 41.4 °F 30% 29.94 in 10.0 mi ESE 9.2 mph - N/A   Clear
5:15 PM 74.7 °F - 41.2 °F 30% 29.94 in 10.0 mi ESE 8.1 mph - N/A   Clear
5:35 PM 73.9 °F - 42.4 °F 32% 29.94 in 10.0 mi SE 9.2 mph - N/A   Clear
5:55 PM 72.7 °F - 43.2 °F 35% 29.94 in 10.0 mi SE 8.1 mph - N/A   Clear
6:15 PM 71.4 °F - 45.5 °F 39% 29.95 in 10.0 mi SE 5.8 mph - N/A   Clear
6:35 PM 69.3 °F - 46.4 °F 44% 29.95 in 10.0 mi ESE 5.8 mph - N/A   Clear
6:55 PM 66.2 °F - 47.3 °F 51% 29.95 in 10.0 mi ESE 4.6 mph - N/A   Clear
7:15 PM 64.0 °F - 47.5 °F 55% 29.95 in 10.0 mi ESE 5.8 mph - N/A   Clear
7:35 PM 62.1 °F - 48.2 °F 60% 29.95 in 10.0 mi ESE 6.9 mph - N/A   Clear
7:55 PM 59.5 °F - 48.6 °F 67% 29.95 in 10.0 mi ESE 6.9 mph - N/A   Clear
8:15 PM 58.8 °F - 48.7 °F 69% 29.96 in 10.0 mi ESE 6.9 mph - N/A   Clear
8:35 PM 57.2 °F - 48.6 °F 73% 29.97 in 10.0 mi ESE 6.9 mph - N/A   Clear
8:55 PM 57.2 °F - 48.6 °F 73% 29.97 in 10.0 mi East 6.9 mph - N/A   Clear
9:15 PM 56.8 °F - 48.7 °F 74% 29.97 in 10.0 mi ESE 6.9 mph - N/A   Clear
9:35 PM 56.3 °F - 48.7 °F 76% 29.97 in 10.0 mi ESE 6.9 mph - N/A   Clear
9:55 PM 55.8 °F - 48.6 °F 77% 29.97 in 10.0 mi ESE 6.9 mph - N/A   Clear
10:15 PM 55.6 °F - 48.4 °F 77% 29.98 in 10.0 mi ESE 5.8 mph - N/A   Clear
10:35 PM 54.9 °F - 48.2 °F 78% 29.98 in 10.0 mi ESE 4.6 mph - N/A   Clear
10:55 PM 55.0 °F - 47.8 °F 77% 29.98 in 10.0 mi ESE 5.8 mph - N/A   Clear
11:15 PM 54.5 °F - 47.3 °F 77% 29.98 in 10.0 mi ESE 5.8 mph - N/A   Clear
11:35 PM 53.2 °F - 47.3 °F 80% 29.99 in 10.0 mi ESE 4.6 mph - N/A   Clear
11:55 PM 53.1 °F - 47.5 °F 81% 29.99 in 10.0 mi ESE 5.8 mph - N/A   Clear